Year,Month,Day,Hour,Minute,Value (Times are PST for temperature in C)
2010,07,13,00,00,14.50
2010,07,13,00,01,14.50
2010,07,13,00,02,14.50
2010,07,13,00,03,14.50
2010,07,13,00,04,14.50
2010,07,13,00,05,14.50
2010,07,13,00,06,14.50
2010,07,13,00,07,14.50
2010,07,13,00,08,14.50
2010,07,13,00,09,14.50
2010,07,13,00,10,14.50
2010,07,13,00,11,14.50
2010,07,13,00,12,14.50
2010,07,13,00,13,14.50
2010,07,13,00,14,14.50
2010,07,13,00,15,14.40
2010,07,13,00,16,14.40
2010,07,13,00,17,14.40
2010,07,13,00,18,14.30
2010,07,13,00,19,14.30
2010,07,13,00,20,14.30
2010,07,13,00,21,14.30
2010,07,13,00,22,14.30
2010,07,13,00,23,14.30
2010,07,13,00,24,14.40
2010,07,13,00,25,14.40
2010,07,13,00,26,14.40
2010,07,13,00,27,14.50
2010,07,13,00,28,14.50
2010,07,13,00,29,14.60
2010,07,13,00,30,14.60
2010,07,13,00,31,14.60
2010,07,13,00,32,14.60
2010,07,13,00,33,14.60
2010,07,13,00,34,14.60
2010,07,13,00,35,14.50
2010,07,13,00,36,14.50
2010,07,13,00,37,14.50
2010,07,13,00,38,14.40
2010,07,13,00,39,14.40
2010,07,13,00,40,14.40
2010,07,13,00,41,14.40
2010,07,13,00,42,14.40
2010,07,13,00,43,14.40
2010,07,13,00,44,14.40
2010,07,13,00,45,14.40
2010,07,13,00,46,14.30
2010,07,13,00,47,14.30
2010,07,13,00,48,14.30
2010,07,13,00,49,14.30
2010,07,13,00,50,14.30
2010,07,13,00,51,14.30
2010,07,13,00,52,14.30
2010,07,13,00,53,14.30
2010,07,13,00,54,14.20
2010,07,13,00,55,14.20
2010,07,13,00,56,14.20
2010,07,13,00,57,14.20
2010,07,13,00,58,14.20
2010,07,13,00,59,14.20
2010,07,13,01,00,14.20
2010,07,13,01,01,14.20
2010,07,13,01,02,14.20
2010,07,13,01,03,14.10
2010,07,13,01,04,14.10
2010,07,13,01,05,14.10
2010,07,13,01,06,14.10
2010,07,13,01,07,14.20
2010,07,13,01,08,14.20
2010,07,13,01,09,14.20
2010,07,13,01,10,14.20
2010,07,13,01,11,14.20
2010,07,13,01,12,14.20
2010,07,13,01,13,14.10
2010,07,13,01,14,14.10
2010,07,13,01,15,14.10
2010,07,13,01,16,14.10
2010,07,13,01,17,14.10
2010,07,13,01,18,14.10
2010,07,13,01,19,14.10
2010,07,13,01,20,14.10
2010,07,13,01,21,14.10
2010,07,13,01,22,14.10
2010,07,13,01,23,14.20
2010,07,13,01,24,14.20
2010,07,13,01,25,14.20
2010,07,13,01,26,14.20
2010,07,13,01,27,14.20
2010,07,13,01,28,14.30
2010,07,13,01,29,14.30
2010,07,13,01,30,14.30
2010,07,13,01,31,14.30
2010,07,13,01,32,14.30
2010,07,13,01,33,14.30
2010,07,13,01,34,14.30
2010,07,13,01,35,14.30
2010,07,13,01,36,14.30
2010,07,13,01,37,14.30
2010,07,13,01,38,14.20
2010,07,13,01,39,14.20
2010,07,13,01,40,14.20
2010,07,13,01,41,14.20
2010,07,13,01,42,14.10
2010,07,13,01,43,14.10
2010,07,13,01,44,14.00
2010,07,13,01,45,14.00
2010,07,13,01,46,14.00
2010,07,13,01,47,13.90
2010,07,13,01,48,13.80
2010,07,13,01,49,13.80
2010,07,13,01,50,13.80
2010,07,13,01,51,13.80
2010,07,13,01,52,13.70
2010,07,13,01,53,13.70
2010,07,13,01,54,13.70
2010,07,13,01,55,13.70
2010,07,13,01,56,13.60
2010,07,13,01,57,13.60
2010,07,13,01,58,13.60
2010,07,13,01,59,13.50
2010,07,13,02,00,13.40
2010,07,13,02,01,13.40
2010,07,13,02,02,13.40
2010,07,13,02,03,13.30
2010,07,13,02,04,13.20
2010,07,13,02,05,13.20
2010,07,13,02,06,13.10
2010,07,13,02,07,13.10
2010,07,13,02,08,13.00
2010,07,13,02,09,13.00
2010,07,13,02,10,13.00
2010,07,13,02,11,13.00
2010,07,13,02,12,13.00
2010,07,13,02,13,13.00
2010,07,13,02,14,12.90
2010,07,13,02,15,12.90
2010,07,13,02,16,12.90
2010,07,13,02,17,12.90
2010,07,13,02,18,12.90
2010,07,13,02,19,12.90
2010,07,13,02,20,12.90
2010,07,13,02,21,12.90
2010,07,13,02,22,12.90
2010,07,13,02,23,12.90
2010,07,13,02,24,12.90
2010,07,13,02,25,12.90
2010,07,13,02,26,12.90
2010,07,13,02,27,12.90
2010,07,13,02,28,12.90
2010,07,13,02,29,12.90
2010,07,13,02,30,12.90
2010,07,13,02,31,12.90
2010,07,13,02,32,12.90
2010,07,13,02,33,12.90
2010,07,13,02,34,12.90
2010,07,13,02,35,12.90
2010,07,13,02,36,12.80
2010,07,13,02,37,12.80
2010,07,13,02,38,12.80
2010,07,13,02,39,12.80
2010,07,13,02,40,12.80
2010,07,13,02,41,12.80
2010,07,13,02,42,12.80
2010,07,13,02,43,12.80
2010,07,13,02,44,12.80
2010,07,13,02,45,12.80
2010,07,13,02,46,12.80
2010,07,13,02,47,12.80
2010,07,13,02,48,12.80
2010,07,13,02,49,12.80
2010,07,13,02,50,12.80
2010,07,13,02,51,12.80
2010,07,13,02,52,12.80
2010,07,13,02,53,12.80
2010,07,13,02,54,12.80
2010,07,13,02,55,12.80
2010,07,13,02,56,12.80
2010,07,13,02,57,12.80
2010,07,13,02,58,12.80
2010,07,13,02,59,12.80
2010,07,13,03,00,12.80
2010,07,13,03,01,12.80
2010,07,13,03,02,12.80
2010,07,13,03,03,12.80
2010,07,13,03,04,12.80
2010,07,13,03,05,12.80
2010,07,13,03,06,12.80
2010,07,13,03,07,12.70
2010,07,13,03,08,12.70
2010,07,13,03,09,12.70
2010,07,13,03,10,12.70
2010,07,13,03,11,12.70
2010,07,13,03,12,12.70
2010,07,13,03,13,12.60
2010,07,13,03,14,12.60
2010,07,13,03,15,12.60
2010,07,13,03,16,12.70
2010,07,13,03,17,12.70
2010,07,13,03,18,12.70
2010,07,13,03,19,12.70
2010,07,13,03,20,12.60
2010,07,13,03,21,12.60
2010,07,13,03,22,12.60
2010,07,13,03,23,12.60
2010,07,13,03,24,12.60
2010,07,13,03,25,12.50
2010,07,13,03,26,12.50
2010,07,13,03,27,12.50
2010,07,13,03,28,12.40
2010,07,13,03,29,12.40
2010,07,13,03,30,12.40
2010,07,13,03,31,12.30
2010,07,13,03,32,12.30
2010,07,13,03,33,12.30
2010,07,13,03,34,12.30
2010,07,13,03,35,12.30
2010,07,13,03,36,12.30
2010,07,13,03,37,12.40
2010,07,13,03,38,12.40
2010,07,13,03,39,12.50
2010,07,13,03,40,12.50
2010,07,13,03,41,12.60
2010,07,13,03,42,12.60
2010,07,13,03,43,12.70
2010,07,13,03,44,12.80
2010,07,13,03,45,12.80
2010,07,13,03,46,12.80
2010,07,13,03,47,12.80
2010,07,13,03,48,12.80
2010,07,13,03,49,12.80
2010,07,13,03,50,12.80
2010,07,13,03,51,12.90
2010,07,13,03,52,12.90
2010,07,13,03,53,12.90
2010,07,13,03,54,12.80
2010,07,13,03,55,12.80
2010,07,13,03,56,12.80
2010,07,13,03,57,12.80
2010,07,13,03,58,12.80
2010,07,13,03,59,12.70
2010,07,13,04,00,12.70
2010,07,13,04,01,12.70
2010,07,13,04,02,12.70
2010,07,13,04,03,12.70
2010,07,13,04,04,12.60
2010,07,13,04,05,12.60
2010,07,13,04,06,12.60
2010,07,13,04,07,12.60
2010,07,13,04,08,12.60
2010,07,13,04,09,12.60
2010,07,13,04,10,12.60
2010,07,13,04,11,12.60
2010,07,13,04,12,12.60
2010,07,13,04,13,12.60
2010,07,13,04,14,12.60
2010,07,13,04,15,12.60
2010,07,13,04,16,12.60
2010,07,13,04,17,12.60
2010,07,13,04,18,12.60
2010,07,13,04,19,12.60
2010,07,13,04,20,12.60
2010,07,13,04,21,12.60
2010,07,13,04,22,12.60
2010,07,13,04,23,12.60
2010,07,13,04,24,12.60
2010,07,13,04,25,12.60
2010,07,13,04,26,12.60
2010,07,13,04,27,12.60
2010,07,13,04,28,12.60
2010,07,13,04,29,12.60
2010,07,13,04,30,12.60
2010,07,13,04,31,12.60
2010,07,13,04,32,12.60
2010,07,13,04,33,12.50
2010,07,13,04,34,12.50
2010,07,13,04,35,12.50
2010,07,13,04,36,12.50
2010,07,13,04,37,12.60
2010,07,13,04,38,12.60
2010,07,13,04,39,12.60
2010,07,13,04,40,12.60
2010,07,13,04,41,12.60
2010,07,13,04,42,12.60
2010,07,13,04,43,12.60
2010,07,13,04,44,12.60
2010,07,13,04,45,12.60
2010,07,13,04,46,12.60
2010,07,13,04,47,12.60
2010,07,13,04,48,12.60
2010,07,13,04,49,12.60
2010,07,13,04,50,12.60
2010,07,13,04,51,12.60
2010,07,13,04,52,12.60
2010,07,13,04,53,12.60
2010,07,13,04,54,12.60
2010,07,13,04,55,12.50
2010,07,13,04,56,12.50
2010,07,13,04,57,12.50
2010,07,13,04,58,12.50
2010,07,13,04,59,12.50
2010,07,13,05,00,12.50
2010,07,13,05,01,12.40
2010,07,13,05,02,12.40
2010,07,13,05,03,12.40
2010,07,13,05,04,12.40
2010,07,13,05,05,12.40
2010,07,13,05,06,12.40
2010,07,13,05,07,12.50
2010,07,13,05,08,12.40
2010,07,13,05,09,12.50
2010,07,13,05,10,12.50
2010,07,13,05,11,12.50
2010,07,13,05,12,12.50
2010,07,13,05,13,12.50
2010,07,13,05,14,12.50
2010,07,13,05,15,12.50
2010,07,13,05,16,12.50
2010,07,13,05,17,12.60
2010,07,13,05,18,12.60
2010,07,13,05,19,12.50
2010,07,13,05,20,12.60
2010,07,13,05,21,12.50
2010,07,13,05,22,12.50
2010,07,13,05,23,12.50
2010,07,13,05,24,12.50
2010,07,13,05,25,12.50
2010,07,13,05,26,12.50
2010,07,13,05,27,12.50
2010,07,13,05,28,12.50
2010,07,13,05,29,12.50
2010,07,13,05,30,12.60
2010,07,13,05,31,12.60
2010,07,13,05,32,12.60
2010,07,13,05,33,12.60
2010,07,13,05,34,12.60
2010,07,13,05,35,12.60
2010,07,13,05,36,12.60
2010,07,13,05,37,12.60
2010,07,13,05,38,12.60
2010,07,13,05,39,12.60
2010,07,13,05,40,12.60
2010,07,13,05,41,12.70
2010,07,13,05,42,12.70
2010,07,13,05,43,12.70
2010,07,13,05,44,12.70
2010,07,13,05,45,12.70
2010,07,13,05,46,12.70
2010,07,13,05,47,12.80
2010,07,13,05,48,12.80
2010,07,13,05,49,12.80
2010,07,13,05,50,12.80
2010,07,13,05,51,12.80
2010,07,13,05,52,12.80
2010,07,13,05,53,12.80
2010,07,13,05,54,12.80
2010,07,13,05,55,12.80
2010,07,13,05,56,12.80
2010,07,13,05,57,12.80
2010,07,13,05,58,12.80
2010,07,13,05,59,12.90
2010,07,13,06,00,12.90
2010,07,13,06,01,12.90
2010,07,13,06,02,12.90
2010,07,13,06,03,12.90
2010,07,13,06,04,12.90
2010,07,13,06,05,12.90
2010,07,13,06,06,12.90
2010,07,13,06,07,12.90
2010,07,13,06,08,12.90
2010,07,13,06,09,13.00
2010,07,13,06,10,13.00
2010,07,13,06,11,13.10
2010,07,13,06,12,13.10
2010,07,13,06,13,13.10
2010,07,13,06,14,13.10
2010,07,13,06,15,13.10
2010,07,13,06,16,13.10
2010,07,13,06,17,13.10
2010,07,13,06,18,13.10
2010,07,13,06,19,13.10
2010,07,13,06,20,13.10
2010,07,13,06,21,13.20
2010,07,13,06,22,13.20
2010,07,13,06,23,13.20
2010,07,13,06,24,13.20
2010,07,13,06,25,13.20
2010,07,13,06,26,13.20
2010,07,13,06,27,13.20
2010,07,13,06,28,13.30
2010,07,13,06,29,13.30
2010,07,13,06,30,13.30
2010,07,13,06,31,13.30
2010,07,13,06,32,13.30
2010,07,13,06,33,13.30
2010,07,13,06,34,13.40
2010,07,13,06,35,13.40
2010,07,13,06,36,13.40
2010,07,13,06,37,13.40
2010,07,13,06,38,13.40
2010,07,13,06,39,13.50
2010,07,13,06,40,13.50
2010,07,13,06,41,13.50
2010,07,13,06,42,13.60
2010,07,13,06,43,13.60
2010,07,13,06,44,13.60
2010,07,13,06,45,13.60
2010,07,13,06,46,13.60
2010,07,13,06,47,13.60
2010,07,13,06,48,13.60
2010,07,13,06,49,13.70
2010,07,13,06,50,13.70
2010,07,13,06,51,13.70
2010,07,13,06,52,13.70
2010,07,13,06,53,13.70
2010,07,13,06,54,13.80
2010,07,13,06,55,13.80
2010,07,13,06,56,13.80
2010,07,13,06,57,13.90
2010,07,13,06,58,13.90
2010,07,13,06,59,13.90
2010,07,13,07,00,14.00
2010,07,13,07,01,14.00
2010,07,13,07,02,14.00
2010,07,13,07,03,14.00
2010,07,13,07,04,14.00
2010,07,13,07,05,14.10
2010,07,13,07,06,14.10
2010,07,13,07,07,14.10
2010,07,13,07,08,14.10
2010,07,13,07,09,14.10
2010,07,13,07,10,14.10
2010,07,13,07,11,14.10
2010,07,13,07,12,14.10
2010,07,13,07,13,14.10
2010,07,13,07,14,14.10
2010,07,13,07,15,14.10
2010,07,13,07,16,14.20
2010,07,13,07,17,14.10
2010,07,13,07,18,14.20
2010,07,13,07,19,14.20
2010,07,13,07,20,14.20
2010,07,13,07,21,14.20
2010,07,13,07,22,14.20
2010,07,13,07,23,14.20
2010,07,13,07,24,14.20
2010,07,13,07,25,14.30
2010,07,13,07,26,14.30
2010,07,13,07,27,14.30
2010,07,13,07,28,14.40
2010,07,13,07,29,14.40
2010,07,13,07,30,14.40
2010,07,13,07,31,14.40
2010,07,13,07,32,14.40
2010,07,13,07,33,14.40
2010,07,13,07,34,14.40
2010,07,13,07,35,14.40
2010,07,13,07,36,14.50
2010,07,13,07,37,14.50
2010,07,13,07,38,14.50
2010,07,13,07,39,14.50
2010,07,13,07,40,14.50
2010,07,13,07,41,14.60
2010,07,13,07,42,14.60
2010,07,13,07,43,14.60
2010,07,13,07,44,14.60
2010,07,13,07,45,14.60
2010,07,13,07,46,14.60
2010,07,13,07,47,14.70
2010,07,13,07,48,14.70
2010,07,13,07,49,14.80
2010,07,13,07,50,14.80
2010,07,13,07,51,14.80
2010,07,13,07,52,14.80
2010,07,13,07,53,14.80
2010,07,13,07,54,14.90
2010,07,13,07,55,14.90
2010,07,13,07,56,15.00
2010,07,13,07,57,15.00
2010,07,13,07,58,15.00
2010,07,13,07,59,15.00
2010,07,13,08,00,15.00
2010,07,13,08,01,15.00
2010,07,13,08,02,15.00
2010,07,13,08,03,15.00
2010,07,13,08,04,15.00
2010,07,13,08,05,15.00
2010,07,13,08,06,15.00
2010,07,13,08,07,15.00
2010,07,13,08,08,15.00
2010,07,13,08,09,15.00
2010,07,13,08,10,15.00
2010,07,13,08,11,15.00
2010,07,13,08,12,15.00
2010,07,13,08,13,15.00
2010,07,13,08,14,15.00
2010,07,13,08,15,15.00
2010,07,13,08,16,15.00
2010,07,13,08,17,15.00
2010,07,13,08,18,15.00
2010,07,13,08,19,15.00
2010,07,13,08,20,14.90
2010,07,13,08,21,14.90
2010,07,13,08,22,14.90
2010,07,13,08,23,15.00
2010,07,13,08,24,15.00
2010,07,13,08,25,15.00
2010,07,13,08,26,15.00
2010,07,13,08,27,15.00
2010,07,13,08,28,15.00
2010,07,13,08,29,15.00
2010,07,13,08,30,15.00
2010,07,13,08,31,15.00
2010,07,13,08,32,15.00
2010,07,13,08,33,15.00
2010,07,13,08,34,15.00
2010,07,13,08,35,15.00
2010,07,13,08,36,15.00
2010,07,13,08,37,15.00
2010,07,13,08,38,14.90
2010,07,13,08,39,15.00
2010,07,13,08,40,15.00
2010,07,13,08,41,15.00
2010,07,13,08,42,15.00
2010,07,13,08,43,15.00
2010,07,13,08,44,15.00
2010,07,13,08,45,15.00
2010,07,13,08,46,15.00
2010,07,13,08,47,15.00
2010,07,13,08,48,15.00
2010,07,13,08,49,15.00
2010,07,13,08,50,15.00
2010,07,13,08,51,15.00
2010,07,13,08,52,15.00
2010,07,13,08,53,15.00
2010,07,13,08,54,15.00
2010,07,13,08,55,15.00
2010,07,13,08,56,15.00
2010,07,13,08,57,15.00
2010,07,13,08,58,15.00
2010,07,13,08,59,14.90
2010,07,13,09,00,15.00
2010,07,13,09,01,15.00
2010,07,13,09,02,14.90
2010,07,13,09,03,14.90
2010,07,13,09,04,15.00
2010,07,13,09,05,15.00
2010,07,13,09,06,15.00
2010,07,13,09,07,15.00
2010,07,13,09,08,15.00
2010,07,13,09,09,15.00
2010,07,13,09,10,15.00
2010,07,13,09,11,15.10
2010,07,13,09,12,15.20
2010,07,13,09,13,15.10
2010,07,13,09,14,15.00
2010,07,13,09,15,15.00
2010,07,13,09,16,15.00
2010,07,13,09,17,15.00
2010,07,13,09,18,15.00
2010,07,13,09,19,15.00
2010,07,13,09,20,15.00
2010,07,13,09,21,15.00
2010,07,13,09,22,15.00
2010,07,13,09,23,15.10
2010,07,13,09,24,15.10
2010,07,13,09,25,15.00
2010,07,13,09,26,15.00
2010,07,13,09,27,15.00
2010,07,13,09,28,15.00
2010,07,13,09,29,15.10
2010,07,13,09,30,15.20
2010,07,13,09,31,15.20
2010,07,13,09,32,15.20
2010,07,13,09,33,15.10
2010,07,13,09,34,15.10
2010,07,13,09,35,15.10
2010,07,13,09,36,15.10
2010,07,13,09,37,15.20
2010,07,13,09,38,15.20
2010,07,13,09,39,15.20
2010,07,13,09,40,15.20
2010,07,13,09,41,15.20
2010,07,13,09,42,15.30
2010,07,13,09,43,15.30
2010,07,13,09,44,15.30
2010,07,13,09,45,15.30
2010,07,13,09,46,15.40
2010,07,13,09,47,15.40
2010,07,13,09,48,15.40
2010,07,13,09,49,15.40
2010,07,13,09,50,15.40
2010,07,13,09,51,15.40
2010,07,13,09,52,15.40
2010,07,13,09,53,15.40
2010,07,13,09,54,15.40
2010,07,13,09,55,15.40
2010,07,13,09,56,15.30
2010,07,13,09,57,15.20
2010,07,13,09,58,15.20
2010,07,13,09,59,15.20
2010,07,13,10,00,15.20
2010,07,13,10,01,15.30
2010,07,13,10,02,15.30
2010,07,13,10,03,15.30
2010,07,13,10,04,15.40
2010,07,13,10,05,15.50
2010,07,13,10,06,15.60
2010,07,13,10,07,15.60
2010,07,13,10,08,15.60
2010,07,13,10,09,15.50
2010,07,13,10,10,15.50
2010,07,13,10,11,15.50
2010,07,13,10,12,15.40
2010,07,13,10,13,15.40
2010,07,13,10,14,15.30
2010,07,13,10,15,15.30
2010,07,13,10,16,15.30
2010,07,13,10,17,15.30
2010,07,13,10,18,15.40
2010,07,13,10,19,15.40
2010,07,13,10,20,15.50
2010,07,13,10,21,15.60
2010,07,13,10,22,15.60
2010,07,13,10,23,15.60
2010,07,13,10,24,15.60
2010,07,13,10,25,15.60
2010,07,13,10,26,15.60
2010,07,13,10,27,15.60
2010,07,13,10,28,15.50
2010,07,13,10,29,15.50
2010,07,13,10,30,15.50
2010,07,13,10,31,15.50
2010,07,13,10,32,15.50
2010,07,13,10,33,15.50
2010,07,13,10,34,15.50
2010,07,13,10,35,15.60
2010,07,13,10,36,15.60
2010,07,13,10,37,15.60
2010,07,13,10,38,15.60
2010,07,13,10,39,15.60
2010,07,13,10,40,15.50
2010,07,13,10,41,15.50
2010,07,13,10,42,15.50
2010,07,13,10,43,15.60
2010,07,13,10,44,15.60
2010,07,13,10,45,15.60
2010,07,13,10,46,15.70
2010,07,13,10,47,15.80
2010,07,13,10,48,15.90
2010,07,13,10,49,16.00
2010,07,13,10,50,16.10
2010,07,13,10,51,16.20
2010,07,13,10,52,16.10
2010,07,13,10,53,16.10
2010,07,13,10,54,16.00
2010,07,13,10,55,15.90
2010,07,13,10,56,15.90
2010,07,13,10,57,15.90
2010,07,13,10,58,15.80
2010,07,13,10,59,15.90
2010,07,13,11,00,16.00
2010,07,13,11,01,16.10
2010,07,13,11,02,16.20
2010,07,13,11,03,16.30
2010,07,13,11,04,16.40
2010,07,13,11,05,16.40
2010,07,13,11,06,16.40
2010,07,13,11,07,16.40
2010,07,13,11,08,16.50
2010,07,13,11,09,16.60
2010,07,13,11,10,16.70
2010,07,13,11,11,16.70
2010,07,13,11,12,16.70
2010,07,13,11,13,16.80
2010,07,13,11,14,16.70
2010,07,13,11,15,16.70
2010,07,13,11,16,16.70
2010,07,13,11,17,16.70
2010,07,13,11,18,16.70
2010,07,13,11,19,16.70
2010,07,13,11,20,16.60
2010,07,13,11,21,16.70
2010,07,13,11,22,16.70
2010,07,13,11,23,16.70
2010,07,13,11,24,16.80
2010,07,13,11,25,16.80
2010,07,13,11,26,16.80
2010,07,13,11,27,16.90
2010,07,13,11,28,17.00
2010,07,13,11,29,17.00
2010,07,13,11,30,17.00
2010,07,13,11,31,17.00
2010,07,13,11,32,17.00
2010,07,13,11,33,17.00
2010,07,13,11,34,17.00
2010,07,13,11,35,16.90
2010,07,13,11,36,16.90
2010,07,13,11,37,17.00
2010,07,13,11,38,17.00
2010,07,13,11,39,17.10
2010,07,13,11,40,17.10
2010,07,13,11,41,17.00
2010,07,13,11,42,17.00
2010,07,13,11,43,17.00
2010,07,13,11,44,17.00
2010,07,13,11,45,17.00
2010,07,13,11,46,17.10
2010,07,13,11,47,17.10
2010,07,13,11,48,17.20
2010,07,13,11,49,17.20
2010,07,13,11,50,17.30
2010,07,13,11,51,17.40
2010,07,13,11,52,17.40
2010,07,13,11,53,17.50
2010,07,13,11,54,17.60
2010,07,13,11,55,17.60
2010,07,13,11,56,17.70
2010,07,13,11,57,17.70
2010,07,13,11,58,17.80
2010,07,13,11,59,17.80
2010,07,13,12,00,17.80
2010,07,13,12,01,17.90
2010,07,13,12,02,17.90
2010,07,13,12,03,17.90
2010,07,13,12,04,17.90
2010,07,13,12,05,18.00
2010,07,13,12,06,18.00
2010,07,13,12,07,18.00
2010,07,13,12,08,18.00
2010,07,13,12,09,17.90
2010,07,13,12,10,17.90
2010,07,13,12,11,18.00
2010,07,13,12,12,18.10
2010,07,13,12,13,18.10
2010,07,13,12,14,18.10
2010,07,13,12,15,18.20
2010,07,13,12,16,18.20
2010,07,13,12,17,18.20
2010,07,13,12,18,18.30
2010,07,13,12,19,18.30
2010,07,13,12,20,18.30
2010,07,13,12,21,18.30
2010,07,13,12,22,18.30
2010,07,13,12,23,18.20
2010,07,13,12,24,18.20
2010,07,13,12,25,18.20
2010,07,13,12,26,18.20
2010,07,13,12,27,18.30
2010,07,13,12,28,18.30
2010,07,13,12,29,18.30
2010,07,13,12,30,18.20
2010,07,13,12,31,18.30
2010,07,13,12,32,18.20
2010,07,13,12,33,18.20
2010,07,13,12,34,18.20
2010,07,13,12,35,18.30
2010,07,13,12,36,18.30
2010,07,13,12,37,18.30
2010,07,13,12,38,18.40
2010,07,13,12,39,18.40
2010,07,13,12,40,18.50
2010,07,13,12,41,18.50
2010,07,13,12,42,18.60
2010,07,13,12,43,18.60
2010,07,13,12,44,18.70
2010,07,13,12,45,18.70
2010,07,13,12,46,18.60
2010,07,13,12,47,18.60
2010,07,13,12,48,18.60
2010,07,13,12,49,18.50
2010,07,13,12,50,18.50
2010,07,13,12,51,18.50
2010,07,13,12,52,18.50
2010,07,13,12,53,18.50
2010,07,13,12,54,18.50
2010,07,13,12,55,18.50
2010,07,13,12,56,18.60
2010,07,13,12,57,18.60
2010,07,13,12,58,18.70
2010,07,13,12,59,18.80
2010,07,13,13,00,18.90
2010,07,13,13,01,18.90
2010,07,13,13,02,18.90
2010,07,13,13,03,18.90
2010,07,13,13,04,18.90
2010,07,13,13,05,18.90
2010,07,13,13,06,18.90
2010,07,13,13,07,18.90
2010,07,13,13,08,18.80
2010,07,13,13,09,18.80
2010,07,13,13,10,18.90
2010,07,13,13,11,18.90
2010,07,13,13,12,19.00
2010,07,13,13,13,19.10
2010,07,13,13,14,19.10
2010,07,13,13,15,19.10
2010,07,13,13,16,19.20
2010,07,13,13,17,19.30
2010,07,13,13,18,19.40
2010,07,13,13,19,19.40
2010,07,13,13,20,19.40
2010,07,13,13,21,19.40
2010,07,13,13,22,19.40
2010,07,13,13,23,19.30
2010,07,13,13,24,19.10
2010,07,13,13,25,19.00
2010,07,13,13,26,18.90
2010,07,13,13,27,18.90
2010,07,13,13,28,18.90
2010,07,13,13,29,18.90
2010,07,13,13,30,18.90
2010,07,13,13,31,19.10
2010,07,13,13,32,19.20
2010,07,13,13,33,19.30
2010,07,13,13,34,19.30
2010,07,13,13,35,19.50
2010,07,13,13,36,19.60
2010,07,13,13,37,19.70
2010,07,13,13,38,19.70
2010,07,13,13,39,19.70
2010,07,13,13,40,19.60
2010,07,13,13,41,19.60
2010,07,13,13,42,19.50
2010,07,13,13,43,19.50
2010,07,13,13,44,19.40
2010,07,13,13,45,19.30
2010,07,13,13,46,19.30
2010,07,13,13,47,19.30
2010,07,13,13,48,19.30
2010,07,13,13,49,19.20
2010,07,13,13,50,19.20
2010,07,13,13,51,19.20
2010,07,13,13,52,19.20
2010,07,13,13,53,19.20
2010,07,13,13,54,19.20
2010,07,13,13,55,19.10
2010,07,13,13,56,19.00
2010,07,13,13,57,19.00
2010,07,13,13,58,19.00
2010,07,13,13,59,19.00
2010,07,13,14,00,19.10
2010,07,13,14,01,19.20
2010,07,13,14,02,19.20
2010,07,13,14,03,19.20
2010,07,13,14,04,19.20
2010,07,13,14,05,19.20
2010,07,13,14,06,19.20
2010,07,13,14,07,19.10
2010,07,13,14,08,19.10
2010,07,13,14,09,19.20
2010,07,13,14,10,19.20
2010,07,13,14,11,19.20
2010,07,13,14,12,19.20
2010,07,13,14,13,19.30
2010,07,13,14,14,19.30
2010,07,13,14,15,19.20
2010,07,13,14,16,19.20
2010,07,13,14,17,19.20
2010,07,13,14,18,19.20
2010,07,13,14,19,19.20
2010,07,13,14,20,19.20
2010,07,13,14,21,19.10
2010,07,13,14,22,19.10
2010,07,13,14,23,19.10
2010,07,13,14,24,19.20
2010,07,13,14,25,19.20
2010,07,13,14,26,19.30
2010,07,13,14,27,19.30
2010,07,13,14,28,19.30
2010,07,13,14,29,19.30
2010,07,13,14,30,19.30
2010,07,13,14,31,19.30
2010,07,13,14,32,19.30
2010,07,13,14,33,19.30
2010,07,13,14,34,19.40
2010,07,13,14,35,19.40
2010,07,13,14,36,19.40
2010,07,13,14,37,19.50
2010,07,13,14,38,19.60
2010,07,13,14,39,19.60
2010,07,13,14,40,19.70
2010,07,13,14,41,19.70
2010,07,13,14,42,19.60
2010,07,13,14,43,19.60
2010,07,13,14,44,19.50
2010,07,13,14,45,19.50
2010,07,13,14,46,19.50
2010,07,13,14,47,19.50
2010,07,13,14,48,19.50
2010,07,13,14,49,19.60
2010,07,13,14,50,19.60
2010,07,13,14,51,19.60
2010,07,13,14,52,19.60
2010,07,13,14,53,19.60
2010,07,13,14,54,19.60
2010,07,13,14,55,19.60
2010,07,13,14,56,19.60
2010,07,13,14,57,19.60
2010,07,13,14,58,19.60
2010,07,13,14,59,19.60
2010,07,13,15,00,19.60
2010,07,13,15,01,19.60
2010,07,13,15,02,19.70
2010,07,13,15,03,19.70
2010,07,13,15,04,19.70
2010,07,13,15,05,19.70
2010,07,13,15,06,19.80
2010,07,13,15,07,19.80
2010,07,13,15,08,19.80
2010,07,13,15,09,19.80
2010,07,13,15,10,19.80
2010,07,13,15,11,19.80
2010,07,13,15,12,19.80
2010,07,13,15,13,19.80
2010,07,13,15,14,19.80
2010,07,13,15,15,19.90
2010,07,13,15,16,19.90
2010,07,13,15,17,19.90
2010,07,13,15,18,19.90
2010,07,13,15,19,19.90
2010,07,13,15,20,19.80
2010,07,13,15,21,19.80
2010,07,13,15,22,19.90
2010,07,13,15,23,19.90
2010,07,13,15,24,19.90
2010,07,13,15,25,19.90
2010,07,13,15,26,19.80
2010,07,13,15,27,19.80
2010,07,13,15,28,19.70
2010,07,13,15,29,19.70
2010,07,13,15,30,19.80
2010,07,13,15,31,19.80
2010,07,13,15,32,19.80
2010,07,13,15,33,19.80
2010,07,13,15,34,19.80
2010,07,13,15,35,19.80
2010,07,13,15,36,19.90
2010,07,13,15,37,19.90
2010,07,13,15,38,19.90
2010,07,13,15,39,20.00
2010,07,13,15,40,20.00
2010,07,13,15,41,20.00
2010,07,13,15,42,20.10
2010,07,13,15,43,20.20
2010,07,13,15,44,20.20
2010,07,13,15,45,20.30
2010,07,13,15,46,20.40
2010,07,13,15,47,20.50
2010,07,13,15,48,20.60
2010,07,13,15,49,20.60
2010,07,13,15,50,20.60
2010,07,13,15,51,20.60
2010,07,13,15,52,20.70
2010,07,13,15,53,20.70
2010,07,13,15,54,20.70
2010,07,13,15,55,20.70
2010,07,13,15,56,20.70
2010,07,13,15,57,20.70
2010,07,13,15,58,20.70
2010,07,13,15,59,20.70
2010,07,13,16,00,20.70
2010,07,13,16,01,20.80
2010,07,13,16,02,20.80
2010,07,13,16,03,20.80
2010,07,13,16,04,20.80
2010,07,13,16,05,20.80
2010,07,13,16,06,20.80
2010,07,13,16,07,20.80
2010,07,13,16,08,20.90
2010,07,13,16,09,20.90
2010,07,13,16,10,20.90
2010,07,13,16,11,20.80
2010,07,13,16,12,20.80
2010,07,13,16,13,20.70
2010,07,13,16,14,20.80
2010,07,13,16,15,20.80
2010,07,13,16,16,20.80
2010,07,13,16,17,20.80
2010,07,13,16,18,20.80
2010,07,13,16,19,20.80
2010,07,13,16,20,20.90
2010,07,13,16,21,20.90
2010,07,13,16,22,20.90
2010,07,13,16,23,20.90
2010,07,13,16,24,20.90
2010,07,13,16,25,20.90
2010,07,13,16,26,21.00
2010,07,13,16,27,20.90
2010,07,13,16,28,21.00
2010,07,13,16,29,21.00
2010,07,13,16,30,21.00
2010,07,13,16,31,21.00
2010,07,13,16,32,21.10
2010,07,13,16,33,21.10
2010,07,13,16,34,21.10
2010,07,13,16,35,21.20
2010,07,13,16,36,21.30
2010,07,13,16,37,21.30
2010,07,13,16,38,21.30
2010,07,13,16,39,21.40
2010,07,13,16,40,21.40
2010,07,13,16,41,21.40
2010,07,13,16,42,21.40
2010,07,13,16,43,21.40
2010,07,13,16,44,21.30
2010,07,13,16,45,21.40
2010,07,13,16,46,21.40
2010,07,13,16,47,21.40
2010,07,13,16,48,21.40
2010,07,13,16,49,21.40
2010,07,13,16,50,21.50
2010,07,13,16,51,21.50
2010,07,13,16,52,21.60
2010,07,13,16,53,21.60
2010,07,13,16,54,21.60
2010,07,13,16,55,21.60
2010,07,13,16,56,21.60
2010,07,13,16,57,21.60
2010,07,13,16,58,21.60
2010,07,13,16,59,21.70
2010,07,13,17,00,21.60
2010,07,13,17,01,21.50
2010,07,13,17,02,21.50
2010,07,13,17,03,21.40
2010,07,13,17,04,21.40
2010,07,13,17,05,21.40
2010,07,13,17,06,21.30
2010,07,13,17,07,21.30
2010,07,13,17,08,21.20
2010,07,13,17,09,21.10
2010,07,13,17,10,21.10
2010,07,13,17,11,21.10
2010,07,13,17,12,21.00
2010,07,13,17,13,21.00
2010,07,13,17,14,20.90
2010,07,13,17,15,21.00
2010,07,13,17,16,21.00
2010,07,13,17,17,21.00
2010,07,13,17,18,21.10
2010,07,13,17,19,21.10